Location: Unspecified
(58.7730°N, 5.8460°E)
Time: 04:39:30
(UTC+02:00)

Cosmos 1674 - Visible Passes

Search period start: 26 July 2016 00:00
Search period end: 05 August 2016 00:00
Orbit: 501 x 525 km, 82.5° (Epoch: 25 July)

Date Brightness Start Highest point End Pass type
(mag) Time Alt. Az. Time Alt. Az. Time Alt. Az.
28 Jul 4.8 04:01:49 10° N 04:05:13 29° ENE 04:08:34 10° SE visible
29 Jul 5.0 03:46:03 10° N 03:49:18 26° ENE 03:52:30 10° ESE visible
30 Jul 5.2 03:30:17 10° N 03:33:21 22° ENE 03:36:24 10° ESE visible
31 Jul 5.4 03:14:33 10° N 03:17:24 20° ENE 03:20:15 10° ESE visible
01 Aug 5.5 02:58:50 10° NNE 03:01:27 17° ENE 03:04:03 10° E visible
02 Aug 5.5 02:43:08 10° NNE 02:45:29 15° NE 02:47:49 10° E visible
02 Aug 2.7 04:17:57 10° NNW 04:21:46 88° ENE 04:25:33 10° SSE visible
03 Aug 5.6 02:27:30 10° NNE 02:29:31 14° NE 02:31:30 10° E visible
03 Aug 2.9 04:02:06 10° N 04:05:54 75° ENE 04:09:39 10° SSE visible
04 Aug 5.6 02:11:56 10° NNE 02:13:31 12° NE 02:15:04 10° ENE visible
04 Aug 3.1 03:46:13 10° N 03:50:01 63° ENE 03:53:45 10° SSE visible
